Regional Weather Roundup
Issued by NWS Sterling, VA

Home | Current Version | Previous Version | Graphics & Text | Print | Product List | Glossary On
Versions: 1 2 3 4 5 6 7 8 9 10 11 12 13 14 15 16 17 18 19 20 21 22 23 24 25 26 27 28 29 30 31 32 33 34 35 36 37 38 39 40 41 42 43 44 45 46 47 48 49 50
000
ASUS41 KLWX 010410
RWRLWX

REGIONAL WEATHER ROUNDUP
NATIONAL WEATHER SERVICE BALTIMORE MD/WASHINGTON DC
1200 AM EDT WED OCT 01 2014

Note: "FAIR" indicates few or no clouds below 12,000 feet
with no significant weather and/or obstructions to visibility.
 TC=TEMPERATURE CELSIUS

 * =Non NWS site. Station does not report precipitation (e.g. rain,
    snow, etc.), thunder, or fog.

DCZ001-MDZ009-015-VAZ040>042-051-053>054-010500-
WASHINGTON METRO

CITY           SKY/WX    TMP DP  RH WIND       PRES   REMARKS
WASHINGTON NAT CLOUDY    68  62  81 N7        29.95S
DULLES         MOCLDY    62  62 100 CALM      29.95R
ANDREWS AFB    CLOUDY    65  63  96 N3        29.95S
QUANTICO       CLOUDY    66  62  87 MISG      29.95R
COLLEGE PARK*  CLOUDY    64  64 100 CALM      29.94F
LEESBURG*      CLOUDY    63  63 100 CALM      29.95S FOG
MANASSAS*      CLOUDY    64  63  94 CALM      29.94S
GAITHERSBURG*  PTCLDY    61  59  94 CALM      29.99R

$$

MDZ006>007-011-014-010500-
BALTIMORE METRO

CITY           SKY/WX    TMP DP  RH WIND       PRES   REMARKS
BWI AIRPORT    RAIN      64  63  94 E12       29.95F FOG
MD SCIENCE CTR   N/A     66  62  87 MISG      29.97R
MARTIN STATE   CLOUDY    68  63  83 CALM      29.98R
ANNAPOLIS      MOCLDY    68  62  81 E6        29.95S
FORT MEADE*    CLOUDY    63  61  94 E8        29.97F

$$

MDZ012-015-019>023-010500-
MARYLAND EASTERN SHORE

CITY           SKY/WX    TMP DP  RH WIND       PRES   REMARKS
OCEAN CITY     MOCLDY    67  62  84 NE6       29.93R
SALISBURY      CLOUDY    65  61  87 NW5       29.94R
BAY BRIDGE AP*   N/A     66  61  82 SE3       29.95S
CAMBRIDGE*     MOCLDY    66  61  82 CALM      29.94S
EASTON*        CLOUDY    66  66 100 CALM      29.99R

$$

MDZ017>025-010500-
SOUTHERN MARYLAND

CITY           SKY/WX    TMP DP  RH WIND       PRES   REMARKS
PATUXENT RIVER MOCLDY    67  62  84 SE5       29.94S
ST INIGOES     CLOUDY    64  61  90 CALM      29.94R
LEONARDTOWN*   PTCLDY    63  59  88 CALM      29.96S

$$

MDZ003>005-010500-
NORTH CENTRAL MARYLAND

CITY           SKY/WX    TMP DP  RH WIND       PRES   REMARKS
FREDERICK*     PTCLDY    63  63 100 NE5       29.98S
HAGERSTOWN APT PTCLDY    61  59  93 N6        29.96R FOG
WESTMINSTER*   CLOUDY    61  59  94 CALM      29.97S

$$

MDZ501>502-010500-
WESTERN MARYLAND

CITY           SKY/WX    TMP DP  RH WIND       PRES   REMARKS
OAKLAND*       CLOUDY    52 N/A N/A SE8       30.00R
CUMBERLAND*    PTCLDY    61  57  88 CALM      30.00R

$$

VAZ025>031-010500-
SHENANDOAH VALLEY

CITY           SKY/WX    TMP DP  RH WIND       PRES   REMARKS
WINCHESTER*    MOCLDY    63  61  94 CALM      29.95S FOG
STAUNTON*      MOCLDY    64  57  78 CALM      29.98R

$$

WVZ021-048>050-054>055-010500-
EASTERN WEST VIRGINIA PANHANDLE

CITY           SKY/WX    TMP DP  RH WIND       PRES   REMARKS
MARTINSBURG    PTCLDY    62  58  86 CALM      29.96R FOG
PETERSBURG*    HVY RAIN N/A N/A N/A CALM      29.99R

$$

VAZ036>039-050-010500-
CENTRAL FOOTHILLS

CITY           SKY/WX    TMP DP  RH WIND       PRES   REMARKS
CHARLOTTESVILL PTCLDY    62  61  96 CALM      29.95S FOG
ORANGE*        CLOUDY    63  61  94 E5        29.96S FOG

$$

VAZ055>057-010500-
NORTH AND CENTRAL PIEDMONT

CITY           SKY/WX    TMP DP  RH WIND       PRES   REMARKS
FREDERICKSBRG* LGT RAIN  65  65 100 SE3       29.94S
STAFFORD*      DRIZZLE   63  63 100 CALM      29.97F

$$

NCZ024-NYZ072-PAZ021-071-VAZ022-071-010500-
OTHER REGIONAL OBSERVATIONS

CITY           SKY/WX    TMP DP  RH WIND       PRES   REMARKS
NEW YORK CITY  LGT RAIN  64  57  78 NE7       30.02S
PHILADELPHIA   MOCLDY    63  58  83 NE6       29.97R
PITTSBURGH     CLOUDY    59  58  96 N8        29.97R
ROANOKE        PTCLDY    61  56  83 SW3       29.97S
RICHMOND       PTCLDY    62  60  93 N3        29.94R
RALEIGH        PTCLDY    61  59  93 CALM      29.94R

$$

ANZ530>537-010500-
MARINE OBSERVATIONS

STATION/POSITION TIME  TEMP    WIND        PRES
                       AIR SEA DIR/SP/G
                 (UTC) (F)     (DEG/KT/KT) (MB)
THOMAS PT LIGHT  0400   67 72  120/ 10/ 12 1014.9S
BALT KEY BRIDGE  0400   68      70/  5/  7 1014.5R
COVE POINT       0400   68     140/  4/  5 1013.8S
LEWISETTA        0400   67 72  300/  4/  5 1013.4S
SOLOMONS ISLAND  0400      73                N/A
PINEY POINT      0400          320/  1/  2   N/A

$$



USA.gov is the U.S. government's official web portal to all federal, state and local government web resources and services.